Regional Weather Roundup
Issued by NWS Little Rock, AR

Home | Current Version | Previous Version | Text Only | Print | Product List | Glossary On
Versions: 1 2 3 4 5 6 7 8 9 10 11 12 13 14 15 16 17 18 19 20 21 22 23 24 25 26 27 28 29 30 31 32 33 34 35 36 37 38 39 40 41 42 43 44 45 46 47 48 49 50
000
ASUS44 KLZK 221705
RWRLZK

WEATHER ROUNDUP FOR ARKANSAS
NATIONAL WEATHER SERVICE LITTLE ROCK AR
1200 PM CDT SAT JUL 22 2017

NOTE: "FAIR" INDICATES FEW OR NO CLOUDS BELOW 12,000 FEET WITH NO
SIGNIFICANT WEATHER AND/OR OBSTRUCTIONS TO VISIBILITY.

ARZ001-003-010-029-221800-
NORTHWEST ARKANSAS

CITY           SKY/WX    TMP DP  RH WIND       PRES   REMARKS
FAYETTEVILLE   SUNNY     89  74  60 S12       29.99S HX  98
FORT SMITH     SUNNY     93  72  50 SW10      29.95S HX 101
HARRISON       SUNNY     92  70  48 SW7       29.99S HX  97
BENTONVILLE    SUNNY     90  72  55 SW12      30.00S HX  96
ROGERS         SUNNY     90  72  55 SW12      29.99F HX  97
SILOAM SPGS    MOSUNNY   91  70  49 SW13G18   29.97F HX  97
HIGHFILL       MOSUNNY   92  72  51 SW9       29.98F HX  99
SPRINGDALE     SUNNY     91  72  52 SW9G16    30.00F HX  98
$$

ARZ004-005-016-221800-
NORTH CENTRAL ARKANSAS

CITY           SKY/WX    TMP DP  RH WIND       PRES   REMARKS
BATESVILLE     MOSUNNY   93  73  52 SW10      29.96S HX 102
FLIPPIN        SUNNY     93  68  43 W8        29.94S HX  97
$$

ARZ040-041-221800-
WEST CENTRAL ARKANSAS

CITY           SKY/WX    TMP DP  RH WIND       PRES   REMARKS
MENA           MOSUNNY   93  73  52 SW7       30.01S HX 102
MOUNT IDA      SUNNY     93  69  45 CALM      29.97S HX  98
$$

ARZ009-017-025-026-028-221800-
NORTHEAST ARKANSAS

CITY           SKY/WX    TMP DP  RH WIND       PRES   REMARKS
JONESBORO      SUNNY     95  77  55 SW14      29.95F HX 109
WALNUT RIDGE   SUNNY     93  75  55 SW5       29.95R HX 104
BLYTHEVILLE    MOSUNNY   92  78  63 VRB7      29.97S HX 107
$$

ARZ022-023-033-042-044-221800-
CENTRAL ARKANSAS

CITY           SKY/WX    TMP DP  RH WIND       PRES   REMARKS
LITTLE ROCK    MOSUNNY   93  74  53 SW10      29.96F HX 103
N LITTLE ROCK    N/A     92  76  59 SW5       29.95S HX 103
JACKSONVILLE   SUNNY     94  75  54 SW3       29.96F HX 105
CONWAY           N/A     93  73  52 VRB3      29.94F HX 102
SEARCY         SUNNY     93  78  61 SW7       29.97F HX 108
HOT SPRINGS    SUNNY     94  72  48 S9        29.98F HX 102
RUSSELLVILLE   SUNNY     92  74  55 W7        29.95F HX 101
CLINTON        FAIR      91  77  62 VRB5      29.96F HX 105
$$

ARZ036-221800-
EAST ARKANSAS

CITY           SKY/WX    TMP DP  RH WIND       PRES   REMARKS
WEST MEMPHIS   SUNNY     92  78  63 SW6       29.96F HX 107
$$

ARZ050-053-066-070-073-221800-
SOUTHWEST ARKANSAS

CITY           SKY/WX    TMP DP  RH WIND       PRES   REMARKS
ARKADELPHIA    FAIR      91  77  63 NW6       29.98F HX 104
CAMDEN         SUNNY     93  73  52 SW6       29.98S HX 102
TEXARKANA      SUNNY     90  73  57 SW7       29.98F HX  98
EL DORADO      SUNNY     91  74  57 VRB5      29.99F HX 100
DE QUEEN       MOSUNNY   91  77  63 W6        29.95F HX 104
$$

ARZ056-057-069-221800-
SOUTHEAST ARKANSAS

CITY           SKY/WX    TMP DP  RH WIND       PRES   REMARKS
PINE BLUFF     SUNNY     91  74  57 VRB7      29.97F HX 100
STUTTGART      SUNNY     93  68  43 SW7       29.98S HX  97
MONTICELLO     SUNNY     92  74  55 SW6       29.99S HX 101

$$





USA.gov is the U.S. government's official web portal to all federal, state and local government web resources and services.